STARLINK-1992, 47632

Orbit data source: Space-Track

STARLINK-1992, 47632 is a payload satellite owned by SpaceX/Seattle (US) in LEO that was launched on Tue, 16 Feb 2021 UTC via an FALCON 9 launch vehicle from the Air Force Eastern Test Range (AFETR). Payload-class satellites include a variety of spacecraft equipped with specific instruments for various scientific and technological missions. These include communications satellites like Starlink; space stations such as the ISS; scientific satellites like the Hubble; Earth observation satellites from companies like Planet Labs, Umbra, and HawkEye 360; GPS; miniature CubeSats for education and research; and military/defense satellites.

Loading next visibility...
Identifier
47632, 2021-012N
Orbit
LEO
Country
Flag of USUS
Related business
Manufacturer
SpaceX/Seattle
Mission
Operational Commercial Communications
Bus & Motor
STARLINK, Unknown motor
Mass
260 kg wet, ~248 kg dry
Launch date (UTC)
2021-02-16 (5 years ago)
Launch vehicle
FALCON 9
Launch site
Air Force Eastern Test Range (AFETR)
Object type
Payload
Rocket body
Debris
Shape & HBR
Box + 1 Pan, 10.1 m
Radar Cross Section
13.562 m², Large (>1 m²)

Expand to show TLE details & history
Last TLE update: 2 days ago

TLE from 2 days ago
0 STARLINK-1992
1 47632U 21012N   26171.40976392  .00000807  00000-0  37767-4 0  9994
2 47632  53.1605 214.8248 0001299  86.9303 273.1847 15.31708146297098
Epoch: 2026-06-20T09:50Z
TLE epoch observation values (Epoch: 2026-06-20T09:50:03.602Z)
Latitude
-0.00004°
Longitude
158.68497°
Altitude
471.567 km
Speed
7.632 km/s
True Right ascension
14h 19m 17s
True Declination
0° 00' 00"
Sunlit
Object was in full shadow at epoch
Visualization orbit readout
Latitude
Unknown
Longitude
Unknown
Altitude
Unknown
Speed
Unknown
Apparent Right ascension
Unknown
Apparent Declination
Unknown
Sunlit
N/A
Visualization observer readout
Local Sidereal Time
00:50:03
Azimuth
Unknown
Elevation
Unknown
Doppler factor
Unknown
Orbital elements
Apogee altitude
471.862 km
Perigee altitude
470.083 km
Semi-major axis
6,849.109 km
Eccentricity
0.00013
Inclination
53.1605°
RAAN
214.8248°
Arg. of periapsis
86.9303°
True anomaly
273.16984°
Mean anomaly
273.1847°
Eccentric anomaly
273.17727°
Mean motion
3.82906 °/min
Orbital period
94.02 mins
BSTAR
0.000037767
Loading maneuver chart data...
Computing Atmospheric mass density...

Documentation

Showing up to 5 results
|